Regional Weather Roundup
Issued by NWS

Home | Current Version | Previous Version | Graphics & Text | Print | Product List | Glossary Off
Versions: 1 2 3 4 5 6 7 8 9 10 11 12 13 14 15 16 17 18 19 20 21 22 23 24 25 26 27 28 29 30 31 32 33 34 35 36 37 38 39 40 41 42 43 44 45 46 47 48 49 50

281
ASUS43 KTOP 180708
RWRKS

WEATHER ROUNDUP FOR KANSAS
NATIONAL WEATHER SERVICE GOODLAND KS
100 AM CST SAT NOV 18 2017

NOTE:  "FAIR" INDICATES FEW OR NO CLOUDS BELOW 12,000 FEET WITH NO
SIGNIFICANT WEATHER AND/OR OBSTRUCTIONS TO VISIBILITY.

KSZ001>006-013>018-027>032-041>047-180800-
NORTHWEST KANSAS

CITY           SKY/WX    TMP DP  RH WIND       PRES   REMARKS
GOODLAND       LGT RAIN  41  39  93 NW16      29.79R
HAYS           CLEAR     42  34  73 N14       29.67R
HILL CITY      MOCLDY    44  36  73 NW15G24   29.72R
RUSSELL        CLEAR     43  37  79 N23G33    29.59R
$$

KSZ061>065-074>080-084>089-180800-
SOUTHWEST KANSAS

CITY           SKY/WX    TMP DP  RH WIND       PRES   REMARKS
DODGE CITY     MOCLDY    43  32  65 N21G36    29.65R
ELKHART        CLEAR     47  36  63 N18G26    29.76R
GARDEN CITY    PTCLDY    42  31  64 N17G29    29.71R
GREAT BEND     CLOUDY    46  36  68 N22G31    29.59R
LIBERAL        PTCLDY    46  33  60 N22       29.69R
PRATT          PTCLDY    45  34  66 N22       29.56R
$$

KSZ066>073-081>083-090>101-180800-
SOUTHEAST KANSAS

CITY           SKY/WX    TMP DP  RH WIND       PRES   REMARKS
CHANUTE        PTCLDY    69  61  75 S18       29.38F
COFFEYVILLE    PTCLDY    70  62  76 S17G25    29.41F
HUTCHINSON     MOCLDY    49  40  71 N22G32    29.51R
MEDICINE LODGE   N/A     51  42  71 N18G38    29.54R
NEWTON         MOCLDY    52  49  89 N26G35    29.45R
PARSONS        PTCLDY    68  63  84 S7        29.41F
WICHITA INTL   PTCLDY    54  48  80 NW20      29.47R
WICHITA JABRA  CLEAR     54  47  77 NW23G29   29.44R
WICHITA MCCONL CLEAR     62  45  55 N23G31    29.44R
WINFIELD       CLEAR     70  43  37 SW15G26   29.42F
$$

KSZ007>012-019>026-033>040-048>060-102>105-180800-
NORTHEAST KANSAS

CITY           SKY/WX    TMP DP  RH WIND       PRES   REMARKS
CONCORDIA      CLOUDY    46  39  76 N15G25    29.57S
EMPORIA        PTCLDY    55  50  83 SW6       29.35F
LAWRENCE       CLOUDY    57  55  93 VRB3      29.38F
MANHATTAN      CLOUDY    54  45  71 N12G26    29.47R
MARYSVILLE     CLOUDY    50  43  76 N22       29.53R
OLATHE IND     MOCLDY    60  58  92 CALM      29.37F
OLATHE EXE     PTCLDY    60  59  96 E3        29.37F
SALINA         CLOUDY    51  41  68 N29G39    29.50S
TOPEKA BILLARD CLOUDY    55  55 100 N8        29.38F FOG
TOPEKA FORBES  CLOUDY    58  53  84 N9        29.38F
$$




USA.gov is the U.S. government's official web portal to all federal, state and local government web resources and services.